This is the latest recevied weather packets stored in our database for station/object KC9DK. If no packets are shown the sender has not sent any weather packets the latest 1 day(s).
| Time | Temp. | Humidity | Pressure | Rain* | Wind** | Luminosity | Snow |
|---|---|---|---|---|---|---|---|
| 1778068934 | 8.33° C | 93% | 1013.9 hPa | 0 mm | - | 68 W/m² | - |
| 1778068632 | 7.78° C | 94% | 1013.7 hPa | 0 mm | - | 70 W/m² | - |
| 1778068027 | 7.78° C | 94% | 1013.2 hPa | 0 mm | - | 49 W/m² | - |
| 1778067423 | 7.78° C | 94% | 1013.4 hPa | 0 mm | - | 34 W/m² | - |
| 1778067120 | 7.78° C | 95% | 1013.9 hPa | 0 mm | - | 23 W/m² | - |
| 1778066514 | 7.78° C | 95% | 1013.7 hPa | 0 mm | - | 17 W/m² | - |
| 1778066211 | 7.78° C | 94% | 1013.2 hPa | 1.78 mm | - | 14 W/m² | - |
| 1778064395 | 7.78° C | 95% | 1013.2 hPa | 0 mm | - | 0 W/m² | - |
| 1778063789 | 7.78° C | 94% | 1012.8 hPa | 0 mm | - | 0 W/m² | - |
| 1778063486 | 7.78° C | 95% | 1012.5 hPa | 0 mm | - | 0 W/m² | - |
| 1778062578 | 7.78° C | 95% | 1012.4 hPa | 0 mm | - | 0 W/m² | - |
| 1778061066 | 7.22° C | 94% | 1012.3 hPa | 0 mm | - | 0 W/m² | - |
| 1778060461 | 7.22° C | 95% | 1011.7 hPa | 0 mm | - | 0 W/m² | - |
| 1778060159 | 7.22° C | 95% | 1011.5 hPa | 0 mm | - | 0 W/m² | - |
| 1778059856 | 7.22° C | 95% | 1011.7 hPa | 0 mm | - | 0 W/m² | - |
| 1778059554 | 7.22° C | 95% | 1011.9 hPa | 0 mm | - | 0 W/m² | - |
| 1778058949 | 7.22° C | 95% | 1011.6 hPa | 0 mm | - | 0 W/m² | - |
| 1778058646 | 7.22° C | 95% | 1012 hPa | 0 mm | - | 0 W/m² | - |
| 1778057433 | 7.22° C | 95% | 1012.1 hPa | 0 mm | - | 0 W/m² | - |
| 1778056826 | 7.22° C | 95% | 1011.5 hPa | 0 mm | - | 0 W/m² | - |
| 1778056221 | 7.22° C | 94% | 1011.6 hPa | 0 mm | - | 0 W/m² | - |
| 1778055613 | 7.22° C | 94% | 1011.7 hPa | 0 mm | - | 0 W/m² | - |
| 1778055312 | 7.22° C | 94% | 1011.6 hPa | 0 mm | - | 0 W/m² | - |
| 1778055009 | 7.22° C | 94% | 1011.1 hPa | 0 mm | - | 0 W/m² | - |
| 1778054101 | 7.22° C | 94% | 1011.2 hPa | 0 mm | - | 0 W/m² | - |
* Rain latest hour (hover to see other rain measurements)
** Current wind speed in m/s (hover to see current wind gust speed)